Regional Weather Roundup
Issued by NWS Sioux Falls, SD

Home | Current Version | Previous Version | Text Only | Print | Product List | Glossary Off
Versions: 1 2 3 4 5 6 7 8 9 10 11 12 13 14 15 16 17 18 19 20 21 22 23 24 25 26 27 28 29 30 31 32 33 34 35 36 37 38 39 40 41 42 43 44 45 46 47 48 49 50

000
ASUS43 KFSD 061110
RWRFSD

WEATHER ROUNDUP FOR SE SOUTH DAKOTA/SW MINNESOTA/NW IOWA
NATIONAL WEATHER SERVICE SIOUX FALLS SD
600 AM CDT MON JUL 06 2015

NOTE: "FAIR" INDICATES FEW OR NO CLOUDS BELOW 12,000 FEET WITH NO
SIGNIFICANT WEATHER AND OR OBSTRUCTIONS TO VISIBILITY.


SDZ038>040-050-052>070-061200-
SOUTHEAST SOUTH DAKOTA

CITY           SKY/WX    TMP DP  RH WIND       PRES   REMARKS
BROOKINGS      CLOUDY    66  63  88 N18       29.84F
CHAMBERLAIN    CLOUDY    65  64  97 N12G20    29.95R FOG
HURON          LGT RAIN  64  62  93 N22G33    29.88S FOG
MADISON        PTSUNNY   64  64 100 N20G37    29.81F
MITCHELL       CLOUDY    67  65  93 N14       29.88R
SIOUX FALLS    LGT RAIN  69  68  96 E9        29.81R
WINNER         CLOUDY    64  60  87 NW14      29.99R FOG
YANKTON        CLOUDY    70  66  88 S9        29.85R
$$

MNZ071-072-080-081-089-090-097-098-061200-
SOUTHWEST MINNESOTA

CITY           SKY/WX    TMP DP  RH WIND       PRES   REMARKS
FAIRMONT       CLOUDY    70  64  83 S9        29.83F
JACKSON        LGT RAIN  70  70 100 S8        29.86S
LUVERNE        CLOUDY    70  68  94 E10       29.81F
MARSHALL       CLOUDY    68  63  83 N15       29.82F
PIPESTONE      LGT RAIN  68  66  94 NE13G20   29.80F
REDWOOD FALLS  LGT RAIN  70  69  97 W8        29.83R
TRACY          LGT RAIN  69  69  98 N8G16     29.84S
WINDOM         LGT RAIN  70  68  94 CALM      29.84S
WORTHINGTON    CLOUDY    68  64  88 NE7       29.84F
$$

IAZ001>003-012>014-020>022-031-032-NEZ013-014-SDZ071-061200-
NORTHWEST IOWA

CITY           SKY/WX    TMP DP  RH WIND       PRES   REMARKS
CHEROKEE       CLOUDY    69  69 100 CALM      29.86R
DENISON        LGT RAIN  70  70 100 N13       29.84F
ESTHERVILLE    LGT RAIN  69  68  96 S9        29.86S
LE MARS          N/A     70  70 100 S6        29.85R
ORANGE CITY    DRIZZLE   68  68 100 CALM      29.84R
SHELDON        CLOUDY    70  70 100 E6        29.82S
SIOUX CITY     LGT RAIN  72  69  90 CALM      29.86R
SPENCER        LGT RAIN  70  66  87 SE12      29.84F
STORM LAKE     LGT RAIN  68  68 100 NE8       29.85F
$$

ABBREVIATIONS USED IN REMARKS
   TC - TEMPERATURE IN CELSIUS
  WCI - WIND CHILL INDEX
   HX - HEAT INDEX
  VSB - VISIBILITY



USA.gov is the U.S. government's official web portal to all federal, state and local government web resources and services.